Regional Weather Roundup
Issued by NWS

Home | Current Version | Previous Version | Text Only | Print | Product List | Glossary Off
Versions: 1 2 3 4 5 6 7 8 9 10 11 12 13 14 15 16 17 18 19 20 21 22 23 24 25 26 27

000
ASUS45 KCYS 271910
RWRWY

WYOMING REGIONAL WEATHER ROUNDUP
NATIONAL WEATHER SERVICE CHEYENNE WY
1200 PM MST MON FEB 27 2017

NOTE:  "FAIR" INDICATES FEW OR NO CLOUDS BELOW 12,000 FEET
WITH NO SIGNIFICANT WEATHER AND/OR OBSTRUCTIONS TO VISIBILITY.

WYZ001-272000-
YELLOWSTONE NATIONAL PARK

CITY           SKY/WX    TMP DP  RH WIND       PRES   REMARKS
LK YELLOWSTONE   N/A     16  10  77 VRB5      29.51S WCI   9
W YELLOWSTONE  NOT AVBL

$$
WYZ002>013-054>058-071-098>099-272000-
NORTHERN WYOMING

CITY           SKY/WX    TMP DP  RH WIND       PRES   REMARKS
JACKSON        MOSUNNY   19  14  79 CALM      29.55F
CODY           FAIR      32  12  43 E7        29.54F WCI  26
GREYBULL       FAIR      32  15  49 VRB5      29.59F WCI  27
WORLAND        FAIR      32  16  51 SW5       29.58F WCI  27
SHERIDAN       FAIR      28  16  60 VRB7      29.61S WCI  21
BUFFALO        FAIR      28  12  51 NW9       29.58S WCI  19
GILLETTE       FAIR      37  10  32 N7        29.57F WCI  32
HULETT         FAIR      36  12  38 CALM      29.59F
NEWCASTLE      FAIR      32  27  80 CALM      29.61F

$$
WYZ014>020-022>026-101>103-272000-
CENTRAL WYOMING

CITY           SKY/WX    TMP DP  RH WIND       PRES   REMARKS
BIG PINEY      PTSUNNY   17  10  74 CALM      29.60R
PINEDALE       FAIR      18  10  73 CALM      29.59R
DUBOIS         CLOUDY    23   9  54 CALM      29.50S
LANDER         FAIR      25  16  68 NW10      29.55F WCI  15
RIVERTON       FAIR      26  10  50 NE5       29.56F WCI  20
CASPER         CLOUDY    31  22  69 N3        29.57S
DOUGLAS        PTSUNNY   28  22  78 W6        29.59F WCI  22

$$
WYZ021-027>030-104>119-272000-
SOUTHERN WYOMING

CITY           SKY/WX    TMP DP  RH WIND       PRES   REMARKS
EVANSTON       LGT SNOW  22  19  89 S12       29.61R VSB 3/4 WCI  10
KEMMERER       LGT SNOW  25  18  74 S8        29.59S WCI  16
FORT BRIDGER   LGT SNOW  25  23  93 W10       29.64R WCI  14
ROCK SPRINGS   LGT SNOW  23  19  85 SW10      29.61R VSB 3/4 WCI  12
DIXON            N/A     35  26  71 SW21G32   29.60F WCI  23
RAWLINS        CLOUDY    25  18  74 W15       29.57R WCI  13
SARATOGA       LGT SNOW  32  27  80 S12G20    29.55F WCI  23
LARAMIE        FAIR      34  20  56 SW24G31   29.54F WCI  21
CHEYENNE       FAIR      34  15  46 S15G22    29.59F WCI  24
TORRINGTON     FAIR      27  16  63 SE3       29.60F
PINE BLUFFS    FAIR      43  16  33 S17G24    29.60F

$$




USA.gov is the U.S. government's official web portal to all federal, state and local government web resources and services.